TimeEST,TemperatureF,Dew PointF,Humidity,Sea Level PressureIn,VisibilityMPH,Wind Direction,Wind SpeedMPH,Gust SpeedMPH,PrecipitationIn,Events,Conditions,WindDirDegrees,DateUTC
12:54 AM,39.0,28.9,67,30.04,10.0,ESE,8.1,-,N/A,,Clear,110,2012-12-29 05:54:00
1:54 AM,39.0,30.0,70,30.02,10.0,ESE,5.8,-,N/A,,Clear,110,2012-12-29 06:54:00
2:54 AM,39.0,30.9,73,30.02,10.0,ESE,4.6,-,N/A,,Mostly Cloudy,120,2012-12-29 07:54:00
3:54 AM,39.9,32.0,73,29.99,10.0,ENE,4.6,-,N/A,,Overcast,70,2012-12-29 08:54:00
4:54 AM,39.9,33.1,77,29.94,9.0,East,8.1,-,N/A,,Overcast,100,2012-12-29 09:54:00
5:54 AM,39.9,34.0,79,29.89,8.0,SE,13.8,-,N/A,,Mostly Cloudy,130,2012-12-29 10:54:00
6:41 AM,39.9,35.1,83,29.87,8.0,ESE,12.7,-,N/A,,Overcast,120,2012-12-29 11:41:00
6:54 AM,39.9,35.1,83,29.87,8.0,ESE,13.8,-,N/A,,Overcast,120,2012-12-29 11:54:00
7:31 AM,39.9,34.0,79,29.82,9.0,ESE,10.4,-,N/A,,Overcast,110,2012-12-29 12:31:00
7:54 AM,39.9,33.1,77,29.82,9.0,ESE,11.5,-,N/A,,Overcast,120,2012-12-29 12:54:00
8:54 AM,41.0,32.0,70,29.78,8.0,ESE,15.0,-,N/A,,Overcast,120,2012-12-29 13:54:00
9:54 AM,37.9,32.0,79,29.81,2.5,SSE,5.8,-,0.00,Rain,Rain,160,2012-12-29 14:54:00
10:06 AM,37.0,33.1,86,29.79,1.5,South,3.5,-,0.01,Snow,Light Snow,170,2012-12-29 15:06:00
10:17 AM,37.0,33.1,86,29.79,2.5,Calm,Calm,-,0.01,Snow,Light Snow,0,2012-12-29 15:17:00
10:26 AM,37.0,33.1,86,29.79,1.8,Calm,Calm,-,0.02,Snow,Light Snow,0,2012-12-29 15:26:00
10:40 AM,36.0,33.1,89,29.78,1.2,Calm,Calm,-,0.03,Snow,Light Snow,0,2012-12-29 15:40:00
10:54 AM,36.0,33.1,89,29.77,1.2,Calm,Calm,-,0.04,Snow,Light Snow,0,2012-12-29 15:54:00
11:13 AM,35.1,33.1,92,29.74,0.8,ESE,5.8,-,0.03,Snow,Light Snow,120,2012-12-29 16:13:00
11:21 AM,35.1,33.1,92,29.74,0.8,ESE,4.6,-,0.03,Snow,Light Snow,120,2012-12-29 16:21:00
11:32 AM,35.1,33.1,92,29.72,0.8,ESE,4.6,-,0.05,Snow,Light Snow,110,2012-12-29 16:32:00
11:54 AM,35.1,33.1,92,29.71,0.8,Calm,Calm,-,0.07,Snow,Light Snow,0,2012-12-29 16:54:00
12:04 PM,35.1,32.0,89,29.69,1.0,Calm,Calm,-,0.00,Snow,Light Snow,0,2012-12-29 17:04:00
12:20 PM,35.1,33.1,92,29.67,0.8,Calm,Calm,-,0.02,Snow,Light Snow,0,2012-12-29 17:20:00
12:33 PM,35.1,33.1,92,29.66,1.2,North,3.5,-,0.02,Snow,Light Snow,350,2012-12-29 17:33:00
12:46 PM,36.0,33.1,89,29.65,2.0,NNW,4.6,-,0.02,Snow,Light Snow,340,2012-12-29 17:46:00
12:54 PM,36.0,33.1,89,29.66,2.5,NNW,3.5,-,0.02,,Overcast,340,2012-12-29 17:54:00
1:04 PM,36.0,34.0,93,29.64,3.0,Calm,Calm,-,0.00,Rain,Light Rain,0,2012-12-29 18:04:00
1:14 PM,36.0,33.1,89,29.62,4.0,Calm,Calm,-,0.00,Rain,Light Rain,0,2012-12-29 18:14:00
1:36 PM,36.0,34.0,93,29.62,3.0,NNW,3.5,-,0.01,,Overcast,330,2012-12-29 18:36:00
1:54 PM,37.0,34.0,89,29.61,4.0,NNW,5.8,-,0.01,,Overcast,340,2012-12-29 18:54:00
2:54 PM,37.9,35.1,89,29.59,4.0,NNW,6.9,-,N/A,,Overcast,330,2012-12-29 19:54:00
3:39 PM,37.9,35.1,89,29.58,5.0,WNW,4.6,-,N/A,,Overcast,290,2012-12-29 20:39:00
3:54 PM,37.9,35.1,89,29.59,6.0,WNW,4.6,-,N/A,,Mostly Cloudy,300,2012-12-29 20:54:00
4:54 PM,37.9,35.1,89,29.59,6.0,WNW,4.6,-,N/A,,Mostly Cloudy,290,2012-12-29 21:54:00
5:06 PM,37.9,35.1,89,29.58,6.0,WNW,5.8,-,N/A,,Partly Cloudy,300,2012-12-29 22:06:00
5:54 PM,37.9,35.1,89,29.62,7.0,WNW,5.8,-,N/A,,Overcast,300,2012-12-29 22:54:00
6:54 PM,39.9,34.0,79,29.65,9.0,WNW,10.4,-,N/A,,Overcast,290,2012-12-29 23:54:00
7:54 PM,42.1,32.0,67,29.67,10.0,WNW,12.7,-,N/A,,Overcast,300,2012-12-30 00:54:00
8:54 PM,42.1,28.9,60,29.71,10.0,WNW,16.1,25.3,N/A,,Overcast,300,2012-12-30 01:54:00
9:54 PM,41.0,28.0,60,29.75,10.0,WNW,10.4,23.0,N/A,,Overcast,300,2012-12-30 02:54:00
10:54 PM,41.0,28.0,60,29.78,10.0,WNW,11.5,21.9,N/A,,Overcast,290,2012-12-30 03:54:00
11:54 PM,39.9,28.0,63,29.79,10.0,WNW,9.2,18.4,N/A,,Overcast,290,2012-12-30 04:54:00